| time (UTC) | temp F | wind direction | speed knots | gust knots | rain 1hr in | rain 24hr in | rain mn in | humidity % | barometer mb |
| 20260831001505 | 85 | 139 | 0.0 | 0.0 | 0.00 | 0.00 | 0.00 | 73 | 1018.4 |
| 20260831000505 | 86 | 139 | 0.0 | 0.0 | 0.00 | 0.00 | 0.00 | 71 | 1018.4 |
| 20260830235505 | 86 | 139 | 0.0 | 0.0 | 0.00 | 0.00 | 0.00 | 69 | 1018.4 |
| 20260830235006 | 87 | 139 | 0.0 | 0.0 | 0.00 | 0.00 | 0.00 | 68 | 1018.4 |
| 20260830234506 | 87 | 140 | 0.0 | 0.0 | 0.00 | 0.00 | 0.00 | 65 | 1018.4 |
| 20260830234004 | 87 | 140 | 0.0 | 0.9 | 0.00 | 0.00 | 0.00 | 64 | 1018.4 |
| 20260830233005 | 87 | 140 | 0.0 | 1.7 | 0.00 | 0.00 | 0.00 | 63 | 1018.4 |
| 20260830232505 | 87 | 137 | 0.9 | 1.7 | 0.00 | 0.00 | 0.00 | 63 | 1018.4 |
| 20260830231006 | 88 | 145 | 0.0 | 1.7 | 0.00 | 0.00 | 0.00 | 62 | 1018.4 |
| 20260830230506 | 88 | 145 | 0.0 | 0.9 | 0.00 | 0.00 | 0.00 | 62 | 1018.4 |
| 20260830230005 | 88 | 145 | 0.0 | 1.7 | 0.00 | 0.00 | 0.00 | 61 | 1018.5 |
| 20260830225506 | 88 | 145 | 0.0 | 0.9 | 0.00 | 0.00 | 0.00 | 60 | 1018.5 |
| 20260830225005 | 88 | 145 | 0.9 | 1.7 | 0.00 | 0.00 | 0.00 | 60 | 1018.5 |
| 20260830224505 | 88 | 145 | 0.0 | 2.6 | 0.00 | 0.00 | 0.00 | 58 | 1018.5 |
| 20260830224006 | 88 | 145 | 0.9 | 2.6 | 0.00 | 0.00 | 0.00 | 58 | 1018.5 |
| 20260830223505 | 88 | 145 | 0.0 | 0.9 | 0.00 | 0.00 | 0.00 | 59 | 1018.5 |
| 20260830222504 | 88 | 300 | 0.9 | 1.7 | 0.00 | 0.00 | 0.00 | 58 | 1018.4 |
| 20260830222005 | 89 | 236 | 0.0 | 1.7 | 0.00 | 0.00 | 0.00 | 58 | 1018.4 |
| 20260830221505 | 89 | 164 | 0.9 | 2.6 | 0.00 | 0.00 | 0.00 | 57 | 1018.4 |
| 20260830221006 | 89 | 160 | 0.9 | 2.6 | 0.00 | 0.00 | 0.00 | 59 | 1018.4 |
| 20260830220505 | 89 | 103 | 0.9 | 1.7 | 0.00 | 0.00 | 0.00 | 59 | 1018.4 |
| 20260830220005 | 89 | 180 | 1.7 | 4.3 | 0.00 | 0.00 | 0.00 | 58 | 1018.4 |
| 20260830215505 | 89 | 159 | 0.0 | 0.9 | 0.00 | 0.00 | 0.00 | 58 | 1018.4 |
| 20260830215005 | 89 | 150 | 0.9 | 2.6 | 0.00 | 0.00 | 0.00 | 58 | 1018.4 |
| 20260830214505 | 90 | 184 | 0.9 | 2.6 | 0.00 | 0.00 | 0.00 | 59 | 1018.4 |
| 20260830214005 | 90 | 125 | 1.7 | 2.6 | 0.00 | 0.00 | 0.00 | 58 | 1018.4 |
| 20260830213505 | 90 | 160 | 0.9 | 2.6 | 0.00 | 0.00 | 0.00 | 58 | 1018.4 |
| 20260830213006 | 90 | 314 | 0.9 | 2.6 | 0.00 | 0.00 | 0.00 | 59 | 1018.4 |
| 20260830212506 | 90 | 111 | 0.9 | 2.6 | 0.00 | 0.00 | 0.00 | 57 | 1018.4 |
| 20260830212005 | 90 | 105 | 0.9 | 2.6 | 0.00 | 0.00 | 0.00 | 57 | 1018.5 |
| 20260830211505 | 90 | 172 | 0.9 | 1.7 | 0.00 | 0.00 | 0.00 | 57 | 1018.5 |
| 20260830211006 | 90 | 172 | 1.7 | 5.2 | 0.00 | 0.00 | 0.00 | 58 | 1018.6 |
| 20260830210506 | 90 | 75 | 1.7 | 4.3 | 0.00 | 0.00 | 0.00 | 57 | 1018.6 |
| 20260830210005 | 90 | 112 | 1.7 | 2.6 | 0.00 | 0.00 | 0.00 | 56 | 1018.5 |
| 20260830205505 | 90 | 132 | 1.7 | 4.3 | 0.00 | 0.00 | 0.00 | 57 | 1018.5 |
| 20260830205005 | 90 | 338 | 0.9 | 2.6 | 0.00 | 0.00 | 0.00 | 56 | 1018.7 |
| 20260830204005 | 89 | 332 | 0.9 | 4.3 | 0.00 | 0.00 | 0.00 | 57 | 1018.8 |
| 20260830203505 | 90 | 83 | 1.7 | 4.3 | 0.00 | 0.00 | 0.00 | 58 | 1018.8 |
| 20260830203005 | 90 | 41 | 0.0 | 2.6 | 0.00 | 0.00 | 0.00 | 57 | 1018.9 |
| 20260830202505 | 89 | 64 | 0.9 | 2.6 | 0.00 | 0.00 | 0.00 | 60 | 1018.9 |
| 20260830201505 | 89 | 53 | 0.9 | 2.6 | 0.00 | 0.00 | 0.00 | 56 | 1018.9 |
| 20260830201005 | 90 | 2 | 1.7 | 2.6 | 0.00 | 0.00 | 0.00 | 58 | 1019.0 |
| 20260830200505 | 90 | 14 | 0.9 | 4.3 | 0.00 | 0.00 | 0.00 | 59 | 1019.0 |
| 20260830200005 | 89 | 9 | 1.7 | 4.3 | 0.00 | 0.00 | 0.00 | 58 | 1019.2 |
| 20260830195504 | 90 | 20 | 0.9 | 2.6 | 0.00 | 0.00 | 0.00 | 57 | 1019.2 |
| 20260830195005 | 90 | 107 | 1.7 | 4.3 | 0.00 | 0.00 | 0.00 | 57 | 1019.2 |
| 20260830194505 | 90 | 109 | 0.9 | 2.6 | 0.00 | 0.00 | 0.00 | 57 | 1019.4 |
| 20260830194005 | 89 | 336 | 0.9 | 2.6 | 0.00 | 0.00 | 0.00 | 58 | 1019.4 |
| 20260830193505 | 89 | 46 | 0.9 | 2.6 | 0.00 | 0.00 | 0.00 | 56 | 1019.4 |
| 20260830193006 | 89 | 72 | 1.7 | 2.6 | 0.00 | 0.00 | 0.00 | 56 | 1019.5 |
| 20260830191505 | 88 | 118 | 0.9 | 2.6 | 0.00 | 0.00 | 0.00 | 59 | 1019.7 |
| 20260830190505 | 89 | 7 | 1.7 | 5.2 | 0.00 | 0.00 | 0.00 | 57 | 1019.7 |
| 20260830190005 | 89 | 139 | 0.9 | 6.1 | 0.00 | 0.00 | 0.00 | 59 | 1019.9 |
| 20260830185506 | 89 | 75 | 1.7 | 6.1 | 0.00 | 0.00 | 0.00 | 57 | 1019.9 |
| 20260830185005 | 89 | 119 | 1.7 | 7.0 | 0.00 | 0.00 | 0.00 | 57 | 1020.0 |
| 20260830184505 | 89 | 322 | 0.9 | 1.7 | 0.00 | 0.00 | 0.00 | 64 | 1020.0 |
| 20260830183504 | 89 | 5 | 0.9 | 1.7 | 0.00 | 0.00 | 0.00 | 57 | 1020.1 |
| 20260830183006 | 89 | 86 | 0.9 | 2.6 | 0.00 | 0.00 | 0.00 | 61 | 1020.5 |
| 20260830182505 | 88 | 58 | 1.7 | 2.6 | 0.00 | 0.00 | 0.00 | 59 | 1020.5 |
| 20260830182005 | 88 | 33 | 2.6 | 5.2 | 0.00 | 0.00 | 0.00 | 60 | 1020.5 |
| 20260830181505 | 88 | 299 | 0.0 | 2.6 | 0.00 | 0.00 | 0.00 | 61 | 1020.5 |
| 20260830180505 | 88 | 15 | 1.7 | 2.6 | 0.00 | 0.00 | 0.00 | 61 | 1020.6 |
| 20260830180005 | 87 | 108 | 1.7 | 4.3 | 0.00 | 0.00 | 0.00 | 64 | 1020.8 |
| 20260830175505 | 87 | 9 | 1.7 | 2.6 | 0.00 | 0.00 | 0.00 | 64 | 1020.8 |
| 20260830175005 | 87 | 10 | 1.7 | 2.6 | 0.00 | 0.00 | 0.00 | 63 | 1021.1 |
| 20260830174505 | 87 | 15 | 0.9 | 2.6 | 0.00 | 0.00 | 0.00 | 63 | 1021.1 |
| 20260830173505 | 87 | 105 | 0.9 | 2.6 | 0.00 | 0.00 | 0.00 | 64 | 1021.1 |
| 20260830172505 | 85 | 355 | 0.0 | 1.7 | 0.00 | 0.00 | 0.00 | 65 | 1021.2 |
| 20260830172006 | 86 | 355 | 0.9 | 1.7 | 0.00 | 0.00 | 0.00 | 66 | 1021.2 |
| 20260830171505 | 86 | 346 | 1.7 | 2.6 | 0.00 | 0.00 | 0.00 | 64 | 1021.2 |
| 20260830171004 | 87 | 73 | 0.0 | 2.6 | 0.00 | 0.00 | 0.00 | 64 | 1021.2 |
| 20260830170505 | 87 | 41 | 1.7 | 4.3 | 0.00 | 0.00 | 0.00 | 66 | 1021.2 |
| 20260830165505 | 86 | 129 | 2.6 | 5.2 | 0.00 | 0.00 | 0.00 | 65 | 1021.4 |
| 20260830165005 | 86 | 88 | 1.7 | 4.3 | 0.00 | 0.00 | 0.00 | 68 | 1021.7 |
| 20260830164506 | 86 | 11 | 0.9 | 2.6 | 0.00 | 0.00 | 0.00 | 66 | 1021.7 |
| 20260830164004 | 86 | 11 | 1.7 | 4.3 | 0.00 | 0.00 | 0.00 | 67 | 1021.7 |
| 20260830163505 | 86 | 55 | 0.9 | 4.3 | 0.00 | 0.00 | 0.00 | 68 | 1021.7 |
| 20260830163005 | 85 | 226 | 0.9 | 2.6 | 0.00 | 0.00 | 0.00 | 67 | 1021.7 |
| 20260830162005 | 85 | 170 | 0.9 | 4.3 | 0.00 | 0.00 | 0.00 | 68 | 1021.7 |
| 20260830161504 | 85 | 91 | 0.9 | 2.6 | 0.00 | 0.00 | 0.00 | 68 | 1021.7 |
| 20260830161005 | 85 | 110 | 1.7 | 4.3 | 0.00 | 0.00 | 0.00 | 69 | 1021.8 |
| 20260830160505 | 85 | 93 | 1.7 | 5.2 | 0.00 | 0.00 | 0.00 | 68 | 1021.8 |
| 20260830155504 | 85 | 341 | 0.9 | 2.6 | 0.00 | 0.00 | 0.00 | 68 | 1022.1 |
| 20260830155005 | 85 | 5 | 0.9 | 2.6 | 0.00 | 0.00 | 0.00 | 70 | 1022.1 |
| 20260830154505 | 85 | 98 | 1.7 | 5.2 | 0.00 | 0.00 | 0.00 | 70 | 1022.1 |
| 20260830154005 | 85 | 109 | 1.7 | 6.1 | 0.00 | 0.00 | 0.00 | 70 | 1022.1 |
| 20260830153005 | 84 | 129 | 0.9 | 4.3 | 0.00 | 0.00 | 0.00 | 75 | 1022.1 |
| 20260830151505 | 83 | 61 | 1.7 | 5.2 | 0.00 | 0.00 | 0.00 | 73 | 1022.1 |
| 20260830151005 | 83 | 61 | 0.9 | 4.3 | 0.00 | 0.00 | 0.00 | 73 | 1022.1 |
| 20260830150505 | 83 | 49 | 0.9 | 4.3 | 0.00 | 0.00 | 0.00 | 76 | 1022.1 |
| 20260830150005 | 82 | 94 | 0.9 | 6.1 | 0.00 | 0.00 | 0.00 | 78 | 1022.0 |
| 20260830145505 | 82 | 69 | 0.9 | 6.1 | 0.00 | 0.00 | 0.00 | 76 | 1022.0 |
| 20260830145005 | 83 | 137 | 0.9 | 2.6 | 0.00 | 0.00 | 0.00 | 77 | 1022.1 |
| 20260830144505 | 82 | 101 | 0.9 | 2.6 | 0.00 | 0.00 | 0.00 | 78 | 1022.1 |
| 20260830144005 | 82 | 14 | 0.9 | 2.6 | 0.00 | 0.00 | 0.00 | 78 | 1022.1 |
| 20260830143004 | 82 | 78 | 1.7 | 5.2 | 0.00 | 0.00 | 0.00 | 79 | 1022.1 |
| 20260830142505 | 81 | 86 | 0.9 | 2.6 | 0.00 | 0.00 | 0.00 | 80 | 1022.1 |
| 20260830142005 | 80 | 85 | 0.9 | 2.6 | 0.00 | 0.00 | 0.00 | 82 | 1022.1 |
| 20260830141505 | 79 | 169 | 0.9 | 4.3 | 0.00 | 0.00 | 0.00 | 84 | 1022.1 |
| 20260830141005 | 80 | 11 | 0.9 | 2.6 | 0.00 | 0.00 | 0.00 | 84 | 1022.1 |
| 20260830140504 | 79 | 355 | 0.9 | 1.7 | 0.00 | 0.00 | 0.00 | 86 | 1022.1 |
| 20260830140005 | 78 | 194 | 0.9 | 2.6 | 0.00 | 0.00 | 0.00 | 88 | 1022.0 |
| 20260830135005 | 77 | 56 | 0.0 | 2.6 | 0.00 | 0.00 | 0.00 | 88 | 1022.0 |
| 20260830134504 | 76 | 56 | 0.9 | 2.6 | 0.00 | 0.00 | 0.00 | 88 | 1022.0 |
| 20260830134006 | 75 | 110 | 0.9 | 1.7 | 0.00 | 0.00 | 0.00 | 87 | 1022.0 |
| 20260830133505 | 74 | 5 | 0.9 | 2.6 | 0.00 | 0.00 | 0.00 | 87 | 1022.0 |
| 20260830133005 | 74 | 0 | 1.7 | 2.6 | 0.00 | 0.00 | 0.00 | 87 | 1022.0 |
| 20260830132505 | 74 | 9 | 0.9 | 2.6 | 0.00 | 0.00 | 0.00 | 87 | 1022.0 |
| 20260830132005 | 74 | 120 | 0.0 | 1.7 | 0.00 | 0.00 | 0.00 | 87 | 1022.0 |
| 20260830131505 | 74 | 139 | 0.0 | 0.9 | 0.00 | 0.00 | 0.00 | 87 | 1022.0 |
| 20260830131005 | 73 | 355 | 0.9 | 1.7 | 0.00 | 0.00 | 0.00 | 88 | 1022.0 |
| 20260830130505 | 73 | 18 | 0.9 | 2.6 | 0.00 | 0.00 | 0.00 | 87 | 1022.0 |
| 20260830125505 | 72 | 126 | 0.0 | 0.9 | 0.00 | 0.00 | 0.00 | 88 | 1021.4 |
| 20260830125005 | 72 | 126 | 0.0 | 0.9 | 0.00 | 0.00 | 0.00 | 88 | 1021.4 |
| 20260830124505 | 72 | 126 | 0.0 | 0.9 | 0.00 | 0.00 | 0.00 | 88 | 1021.4 |
| 20260830124005 | 71 | 126 | 0.0 | 0.9 | 0.00 | 0.00 | 0.00 | 88 | 1021.4 |
| 20260830123505 | 71 | 126 | 0.0 | 0.9 | 0.00 | 0.00 | 0.00 | 88 | 1021.4 |
| 20260830122505 | 71 | 126 | 0.0 | 0.0 | 0.00 | 0.00 | 0.00 | 89 | 1021.4 |
| 20260830122005 | 70 | 126 | 0.0 | 0.0 | 0.00 | 0.00 | 0.00 | 89 | 1021.4 |
| 20260830121505 | 70 | 126 | 0.0 | 0.0 | 0.00 | 0.00 | 0.00 | 89 | 1021.4 |
| 20260830121005 | 70 | 126 | 0.0 | 0.0 | 0.00 | 0.00 | 0.00 | 89 | 1021.4 |
| 20260830120505 | 70 | 126 | 0.0 | 0.0 | 0.00 | 0.00 | 0.00 | 89 | 1021.4 |
| 20260830120005 | 70 | 126 | 0.0 | 0.0 | 0.00 | 0.00 | 0.00 | 89 | 1021.0 |
| 20260830115506 | 70 | 126 | 0.0 | 0.9 | 0.00 | 0.00 | 0.00 | 89 | 1021.0 |
| 20260830115006 | 70 | 126 | 0.0 | 0.9 | 0.00 | 0.00 | 0.00 | 89 | 1021.0 |
| 20260830114505 | 70 | 126 | 0.0 | 0.0 | 0.00 | 0.00 | 0.00 | 89 | 1021.0 |
| 20260830114006 | 70 | 126 | 0.0 | 0.0 | 0.00 | 0.00 | 0.00 | 89 | 1021.0 |
| 20260830113505 | 70 | 126 | 0.0 | 0.0 | 0.00 | 0.00 | 0.00 | 89 | 1021.0 |
| 20260830113005 | 69 | 126 | 0.0 | 0.0 | 0.00 | 0.00 | 0.00 | 89 | 1020.5 |
| 20260830112505 | 69 | 126 | 0.0 | 0.0 | 0.00 | 0.00 | 0.00 | 89 | 1020.5 |
| 20260830112006 | 69 | 126 | 0.0 | 0.9 | 0.00 | 0.00 | 0.00 | 89 | 1020.5 |
| 20260830111005 | 69 | 126 | 0.0 | 0.0 | 0.00 | 0.00 | 0.00 | 89 | 1020.5 |
| 20260830110505 | 69 | 126 | 0.0 | 0.0 | 0.00 | 0.00 | 0.00 | 89 | 1020.5 |
| 20260830105505 | 70 | 126 | 0.0 | 0.0 | 0.00 | 0.00 | 0.00 | 89 | 1020.3 |
| 20260830105005 | 70 | 126 | 0.0 | 0.0 | 0.00 | 0.00 | 0.00 | 89 | 1020.3 |
| 20260830104505 | 70 | 126 | 0.0 | 0.0 | 0.00 | 0.01 | 0.00 | 89 | 1020.2 |
| 20260830104006 | 70 | 126 | 0.0 | 0.0 | 0.00 | 0.03 | 0.00 | 89 | 1020.2 |
| 20260830103505 | 70 | 126 | 0.0 | 0.9 | 0.00 | 0.09 | 0.00 | 89 | 1020.2 |
| 20260830103005 | 70 | 126 | 0.0 | 0.9 | 0.00 | 0.11 | 0.00 | 89 | 1020.2 |
| 20260830102505 | 70 | 126 | 0.0 | 0.9 | 0.00 | 0.13 | 0.00 | 89 | 1020.2 |
| 20260830102005 | 70 | 126 | 0.0 | 0.9 | 0.00 | 0.17 | 0.00 | 89 | 1020.1 |
| 20260830101504 | 70 | 126 | 0.0 | 0.0 | 0.00 | 0.21 | 0.00 | 89 | 1020.1 |
| 20260830101005 | 70 | 126 | 0.0 | 0.0 | 0.00 | 0.27 | 0.00 | 89 | 1020.1 |
| 20260830100505 | 70 | 126 | 0.0 | 0.0 | 0.00 | 0.33 | 0.00 | 89 | 1020.1 |
| 20260830095505 | 70 | 126 | 0.0 | 0.0 | 0.00 | 0.35 | 0.00 | 89 | 1020.1 |
| 20260830095005 | 70 | 126 | 0.0 | 0.0 | 0.00 | 0.35 | 0.00 | 89 | 1020.1 |
| 20260830094004 | 70 | 126 | 0.0 | 0.0 | 0.00 | 0.35 | 0.00 | 89 | 1020.1 |
| 20260830093505 | 70 | 126 | 0.0 | 0.0 | 0.00 | 0.35 | 0.00 | 89 | 1020.1 |
| 20260830093005 | 71 | 126 | 0.0 | 0.0 | 0.00 | 0.36 | 0.00 | 89 | 1020.0 |
| 20260830092505 | 71 | 126 | 0.0 | 0.0 | 0.00 | 0.38 | 0.00 | 89 | 1020.0 |
| 20260830092005 | 71 | 126 | 0.0 | 0.0 | 0.00 | 0.39 | 0.00 | 89 | 1020.0 |
| 20260830091504 | 71 | 126 | 0.0 | 0.0 | 0.00 | 0.39 | 0.00 | 89 | 1020.0 |
| 20260830091005 | 71 | 126 | 0.0 | 0.0 | 0.00 | 0.39 | 0.00 | 89 | 1020.0 |
| 20260830090005 | 71 | 126 | 0.0 | 0.0 | 0.00 | 0.39 | 0.00 | 89 | 1020.0 |
| 20260830085505 | 71 | 126 | 0.0 | 0.0 | 0.00 | 0.39 | 0.00 | 89 | 1020.0 |
| 20260830085005 | 71 | 126 | 0.0 | 0.0 | 0.00 | 0.39 | 0.00 | 89 | 1020.0 |
| 20260830084505 | 71 | 126 | 0.0 | 0.0 | 0.00 | 0.39 | 0.00 | 89 | 1020.0 |
| 20260830084005 | 71 | 126 | 0.0 | 0.0 | 0.00 | 0.39 | 0.00 | 89 | 1020.0 |
| 20260830083506 | 71 | 126 | 0.0 | 0.0 | 0.00 | 0.39 | 0.00 | 89 | 1020.0 |
| 20260830083005 | 71 | 126 | 0.0 | 0.0 | 0.00 | 0.39 | 0.00 | 89 | 1020.0 |
| 20260830082505 | 71 | 126 | 0.0 | 0.0 | 0.00 | 0.39 | 0.00 | 89 | 1020.0 |
| 20260830082005 | 71 | 126 | 0.0 | 0.0 | 0.00 | 0.39 | 0.00 | 89 | 1020.0 |
| 20260830081505 | 71 | 126 | 0.0 | 0.0 | 0.00 | 0.39 | 0.00 | 89 | 1020.0 |
| 20260830081005 | 71 | 126 | 0.0 | 0.0 | 0.00 | 0.39 | 0.00 | 89 | 1020.0 |
| 20260830080505 | 72 | 126 | 0.0 | 0.0 | 0.00 | 0.39 | 0.00 | 89 | 1020.0 |
| 20260830075505 | 72 | 126 | 0.0 | 0.0 | 0.00 | 0.39 | 0.00 | 89 | 1019.9 |
| 20260830075005 | 72 | 126 | 0.0 | 0.0 | 0.00 | 0.39 | 0.00 | 89 | 1019.9 |
| 20260830074006 | 72 | 126 | 0.0 | 0.0 | 0.00 | 0.39 | 0.00 | 89 | 1020.0 |
| 20260830073506 | 72 | 126 | 0.0 | 0.0 | 0.00 | 0.39 | 0.00 | 89 | 1020.0 |
| 20260830073005 | 72 | 126 | 0.0 | 0.0 | 0.00 | 0.39 | 0.00 | 89 | 1020.0 |
| 20260830072504 | 72 | 126 | 0.0 | 0.0 | 0.00 | 0.39 | 0.00 | 89 | 1020.0 |
| 20260830072006 | 72 | 126 | 0.0 | 0.0 | 0.00 | 0.39 | 0.00 | 89 | 1020.0 |
| 20260830071506 | 72 | 126 | 0.0 | 0.0 | 0.00 | 0.39 | 0.00 | 89 | 1020.0 |
| 20260830071005 | 72 | 126 | 0.0 | 0.0 | 0.00 | 0.39 | 0.00 | 89 | 1020.0 |
| 20260830070505 | 73 | 126 | 0.0 | 0.0 | 0.00 | 0.39 | 0.00 | 89 | 1020.0 |
| 20260830070005 | 73 | 126 | 0.0 | 0.0 | 0.00 | 0.39 | 0.00 | 89 | 1020.2 |
| 20260830065506 | 73 | 126 | 0.0 | 0.0 | 0.00 | 0.39 | 0.00 | 89 | 1020.2 |
| 20260830065005 | 73 | 126 | 0.0 | 0.0 | 0.00 | 0.39 | 0.00 | 89 | 1020.2 |
| 20260830064505 | 73 | 126 | 0.0 | 0.9 | 0.00 | 0.39 | 0.00 | 89 | 1020.2 |
| 20260830064005 | 73 | 126 | 0.0 | 0.9 | 0.00 | 0.39 | 0.00 | 89 | 1020.2 |
| 20260830062505 | 73 | 126 | 0.0 | 0.0 | 0.00 | 0.39 | 0.00 | 89 | 1020.2 |
| 20260830062005 | 73 | 126 | 0.0 | 0.0 | 0.00 | 0.39 | 0.00 | 89 | 1020.2 |
| 20260830061005 | 73 | 126 | 0.0 | 0.0 | 0.00 | 0.39 | 0.00 | 89 | 1020.5 |
| 20260830060005 | 74 | 126 | 0.0 | 0.0 | 0.00 | 0.39 | 0.00 | 89 | 1020.6 |
| 20260830055504 | 74 | 126 | 0.0 | 0.0 | 0.00 | 0.39 | 0.00 | 89 | 1020.6 |
| 20260830055005 | 74 | 126 | 0.0 | 0.0 | 0.00 | 0.39 | 0.00 | 89 | 1020.6 |
| 20260830054505 | 74 | 126 | 0.0 | 0.0 | 0.00 | 0.39 | 0.00 | 89 | 1020.6 |
| 20260830054005 | 74 | 126 | 0.0 | 0.0 | 0.00 | 0.39 | 0.00 | 89 | 1020.6 |
| 20260830053505 | 74 | 126 | 0.0 | 0.0 | 0.00 | 0.39 | 0.00 | 89 | 1020.6 |
| 20260830053006 | 74 | 126 | 0.0 | 0.0 | 0.00 | 0.39 | 0.00 | 89 | 1020.6 |
| 20260830052505 | 74 | 126 | 0.0 | 0.0 | 0.00 | 0.39 | 0.00 | 89 | 1020.6 |
| 20260830052004 | 74 | 126 | 0.0 | 0.0 | 0.00 | 0.39 | 0.00 | 89 | 1020.6 |
| 20260830051505 | 74 | 126 | 0.0 | 0.0 | 0.00 | 0.39 | 0.00 | 89 | 1020.6 |
| 20260830045506 | 74 | 126 | 0.0 | 0.0 | 0.00 | 0.39 | 0.00 | 89 | 1020.7 |
| 20260830045005 | 74 | 126 | 0.0 | 0.9 | 0.00 | 0.39 | 0.00 | 89 | 1020.7 |
| 20260830044505 | 74 | 126 | 0.0 | 0.0 | 0.00 | 0.39 | 0.00 | 89 | 1020.7 |
| 20260830044005 | 74 | 126 | 0.0 | 0.9 | 0.00 | 0.39 | 0.00 | 89 | 1020.7 |
| 20260830043505 | 75 | 126 | 0.0 | 0.9 | 0.00 | 0.39 | 0.00 | 89 | 1020.7 |
| 20260830043006 | 75 | 126 | 0.0 | 0.9 | 0.00 | 0.39 | 0.00 | 89 | 1020.7 |
| 20260830042506 | 75 | 126 | 0.0 | 0.9 | 0.00 | 0.39 | 0.00 | 89 | 1020.7 |
| 20260830041505 | 75 | 126 | 0.0 | 0.0 | 0.00 | 0.39 | 0.00 | 89 | 1020.7 |
| 20260830041004 | 75 | 126 | 0.0 | 0.0 | 0.00 | 0.39 | 0.00 | 89 | 1020.7 |
| 20260830040506 | 75 | 126 | 0.0 | 0.0 | 0.00 | 0.39 | 0.00 | 89 | 1020.7 |
| 20260830040005 | 75 | 126 | 0.0 | 0.0 | 0.00 | 0.39 | 0.00 | 89 | 1020.8 |
| 20260830035504 | 75 | 126 | 0.0 | 0.0 | 0.00 | 0.39 | 0.39 | 89 | 1020.8 |
| 20260830035005 | 75 | 126 | 0.0 | 0.9 | 0.00 | 0.39 | 0.39 | 89 | 1020.7 |
| 20260830034005 | 75 | 126 | 0.0 | 0.0 | 0.00 | 0.39 | 0.39 | 88 | 1020.7 |
| 20260830033505 | 75 | 126 | 0.0 | 0.0 | 0.00 | 0.39 | 0.39 | 88 | 1020.7 |
| 20260830033006 | 76 | 126 | 0.0 | 0.0 | 0.00 | 0.39 | 0.39 | 88 | 1020.6 |
| 20260830032506 | 76 | 126 | 0.0 | 0.0 | 0.00 | 0.39 | 0.39 | 88 | 1020.6 |
| 20260830032005 | 76 | 126 | 0.0 | 0.0 | 0.00 | 0.39 | 0.39 | 88 | 1020.5 |
| 20260830031505 | 76 | 126 | 0.0 | 0.0 | 0.00 | 0.39 | 0.39 | 88 | 1020.5 |
| 20260830031005 | 76 | 126 | 0.0 | 0.0 | 0.00 | 0.39 | 0.39 | 88 | 1020.5 |
| 20260830030505 | 76 | 126 | 0.0 | 0.0 | 0.00 | 0.39 | 0.39 | 88 | 1020.5 |
| 20260830030006 | 76 | 126 | 0.0 | 0.0 | 0.00 | 0.39 | 0.39 | 88 | 1020.4 |
| 20260830025006 | 76 | 126 | 0.0 | 0.0 | 0.00 | 0.39 | 0.39 | 88 | 1020.4 |
| 20260830024505 | 76 | 126 | 0.0 | 0.0 | 0.00 | 0.39 | 0.39 | 88 | 1020.4 |
| 20260830024005 | 77 | 126 | 0.0 | 0.0 | 0.00 | 0.39 | 0.39 | 87 | 1020.4 |
| 20260830023505 | 77 | 126 | 0.0 | 0.0 | 0.00 | 0.39 | 0.39 | 87 | 1020.4 |
| 20260830023006 | 77 | 126 | 0.0 | 0.0 | 0.00 | 0.39 | 0.39 | 87 | 1020.1 |
| 20260830022505 | 77 | 126 | 0.0 | 0.0 | 0.00 | 0.39 | 0.39 | 87 | 1020.1 |
| 20260830021505 | 77 | 126 | 0.0 | 0.0 | 0.00 | 0.39 | 0.39 | 86 | 1020.0 |
| 20260830021005 | 78 | 126 | 0.0 | 0.0 | 0.00 | 0.39 | 0.39 | 86 | 1020.0 |
| 20260830020506 | 78 | 126 | 0.0 | 0.0 | 0.00 | 0.39 | 0.39 | 86 | 1020.0 |
| 20260830020006 | 78 | 126 | 0.0 | 0.0 | 0.00 | 0.39 | 0.39 | 86 | 1019.1 |
| 20260830015505 | 78 | 126 | 0.0 | 0.0 | 0.00 | 0.39 | 0.39 | 86 | 1019.1 |
| 20260830015005 | 78 | 126 | 0.0 | 0.0 | 0.00 | 0.39 | 0.39 | 86 | 1019.1 |
| 20260830014005 | 79 | 126 | 0.0 | 0.0 | 0.00 | 0.39 | 0.39 | 85 | 1019.1 |
| 20260830013505 | 79 | 126 | 0.0 | 0.0 | 0.00 | 0.39 | 0.39 | 85 | 1019.1 |
| 20260830013006 | 79 | 126 | 0.0 | 0.0 | 0.00 | 0.39 | 0.39 | 85 | 1018.7 |
| 20260830012506 | 79 | 126 | 0.0 | 0.9 | 0.00 | 0.39 | 0.39 | 84 | 1018.7 |
| 20260830012005 | 80 | 126 | 0.0 | 0.0 | 0.00 | 0.39 | 0.39 | 84 | 1018.7 |
| 20260830011505 | 80 | 126 | 0.0 | 0.0 | 0.00 | 0.39 | 0.39 | 84 | 1018.7 |
| 20260830011005 | 80 | 126 | 0.0 | 0.0 | 0.00 | 0.39 | 0.39 | 83 | 1018.5 |
| 20260830010505 | 80 | 126 | 0.0 | 0.0 | 0.00 | 0.39 | 0.39 | 83 | 1018.5 |
| 20260830010005 | 81 | 126 | 0.0 | 0.0 | 0.00 | 0.39 | 0.39 | 82 | 1018.4 |
| 20260830005504 | 81 | 126 | 0.0 | 0.0 | 0.00 | 0.39 | 0.39 | 82 | 1018.4 |
| 20260830005005 | 81 | 126 | 0.0 | 0.0 | 0.00 | 0.39 | 0.39 | 82 | 1018.4 |
| 20260830004005 | 82 | 126 | 0.0 | 0.9 | 0.00 | 0.39 | 0.39 | 81 | 1018.4 |
| 20260830003505 | 82 | 126 | 0.0 | 0.9 | 0.00 | 0.39 | 0.39 | 80 | 1018.4 |
| 20260830003005 | 83 | 126 | 0.0 | 0.0 | 0.00 | 0.39 | 0.39 | 80 | 1018.4 |